Regional Weather Roundup
Issued by NWS Mt. Holly, NJ

Home | Current Version | Previous Version | Text Only | Print | Product List | Glossary On
Versions: 1 2 3 4 5 6 7 8 9 10 11 12 13 14 15 16 17 18 19 20 21 22 23 24 25 26 27
000
ASUS41 KPHI 232110
RWRPHI

REGIONAL WEATHER ROUNDUP
NATIONAL WEATHER SERVICE MOUNT HOLLY NJ
500 PM EDT THU OCT 23 2014

NOTE:  "FAIR" INDICATES FEW OR NO CLOUDS BELOW 12,000 FEET WITH NO
SIGNIFICANT WEATHER AND/OR OBSTRUCTIONS TO VISIBILITY.

 * = STATION DOES NOT REPORT PRECIPITATION (E.G. RAIN, SNOW, ETC.)
        OR FOG.

NJZ015>026-232200-
SOUTHERN NEW JERSEY

CITY           SKY/WX    TMP DP  RH WIND       PRES   REMARKS
POMONA         CLOUDY    53  47  79 NW15      29.74R
RIO GRANDE*    CLOUDY    55  45  67 NW9G18    29.77R
MILLVILLE      CLOUDY    56  46  69 NW12      29.76F
WRIGHTSTOWN    CLOUDY    53  46  76 NW16      29.71S
MOUNT HOLLY    CLOUDY    55  45  68 NW9G20    29.75S
TRENTON        CLOUDY    53  43  68 N15G22    29.75R

$$
NJZ001>014-232200-
NORTHERN NEW JERSEY

CITY           SKY/WX    TMP DP  RH WIND       PRES   REMARKS
SUSSEX         CLOUDY    53  43  68 VRB6      29.77R
ANDOVER*         N/A     50  42  74 N9G21     29.77R
MORRISTOWN     CLOUDY    54  48  82 NW16G23   29.74R
NEWARK         PTSUNNY   54  49  83 NW20G25   29.72R
TETERBORO      CLOUDY    54  46  74 N14G26    29.71R
CALDWELL       CLOUDY    52  45  77 NW10G18   29.74R
SOMERVILLE     CLOUDY    54  44  69 N12G23    29.74R
ALLAIRE*       CLOUDY    52  46  82 NW12      29.71R
TOMS RIVER*    CLOUDY    52  46  82 NW7       29.72R

$$
PAZ043-044-047-054-055-060>062-066>071-232200-
EASTERN PENNSYLVANIA

CITY           SKY/WX    TMP DP  RH WIND       PRES   REMARKS
PHILADELPHIA   CLOUDY    57  44  62 N20G29    29.78R
NORTH PHILA    CLOUDY    57  42  57 NW16G24   29.78R
BLUE BELL      MOSUNNY   55  45  67 NW10G22   29.76F
DOYLESTOWN     CLOUDY    53  44  71 N13G21    29.76S
QUAKERTOWN*    PTSUNNY   54  45  71 N13G20    29.80R
POTTSTOWN      CLOUDY    54  43  66 NW13G26   29.81S
LANCASTER      CLOUDY    57  44  62 N12       29.83R
COATESVILLE    CLOUDY    54  46  76 N14G21    29.81S
READING        CLOUDY    55  43  63 N14       29.82S
ALLENTOWN      CLOUDY    53  43  68 N24G33    29.80S
MOUNT POCONO   LGT RAIN  44  42  93 NW15G25   29.80S FOG
HAZLETON       CLOUDY    46  43  87 N8G16     29.88R
WILKES BARRE   CLOUDY    50  42  74 N8        29.86R

$$
DEZALL-MDZ008-012-015-019-020-232200-
DELAWARE AND EASTERN MARYLAND

CITY           SKY/WX    TMP DP  RH WIND       PRES   REMARKS
WILMINGTON     CLOUDY    57  46  66 NW16G23   29.80S
DOVER          CLOUDY    57  48  70 NW16      29.77R
GEORGETOWN     CLOUDY    58  46  64 N8        29.79R
EASTON         CLOUDY    63  50  63 NW12      29.84S
PATUXENT       CLOUDY    63  46  54 NW23G29   29.82S
OCEAN CITY     CLOUDY    58  47  66 NW12G23   29.78R
WALLOPS ISLAND CLOUDY    61  48  62 N14       29.80R
CAMBRIDGE      CLOUDY    61  46  59 NW10      29.80S
SALISBURY      CLOUDY    61  47  59 NW9       29.79S

$$
PAZ001-021-NYZ056-072-MDZ011-DCZ001-232200-
OTHER NEARBY LOCATIONS

CITY           SKY/WX    TMP DP  RH WIND       PRES   REMARKS
HARRISBURG     CLOUDY    60  44  55 NW10      29.82F
STATE COLLEGE  CLOUDY    59  41  51 N14G22    29.92S
WILLIAMSPORT   CLOUDY    60  43  53 NW8       29.86F
BINGHAMTON     LGT RAIN  46  41  82 N15G25    29.88R
NEW YORK CITY  CLOUDY    53  46  77 VRB7      29.73R
BALTIMORE      PTSUNNY   62  45  53 NW10G22   29.81F
WASHINGTON DC  PTSUNNY   64  43  46 NW20G30   29.86F

$$



USA.gov is the U.S. government's official web portal to all federal, state and local government web resources and services.